This is the latest recevied weather packets stored in our database for station/object AI5KP-13. If no packets are shown the sender has not sent any weather packets the latest 10 day(s).
| Time | Temp. | Humidity | Pressure | Rain* | Wind** | Luminosity | Snow |
|---|---|---|---|---|---|---|---|
| 1777679140 | 16.67° C | 39% | 1016.4 hPa | 0 mm | - | 75 W/m² | - |
| 1777678838 | 17.22° C | 37% | 1016.3 hPa | 0 mm | - | 78 W/m² | - |
| 1777678536 | 17.22° C | 38% | 1016.2 hPa | 0 mm | - | 85 W/m² | - |
| 1777678232 | 17.22° C | 38% | 1016.3 hPa | 0 mm | - | 95 W/m² | - |
| 1777677928 | 17.22° C | 36% | 1016.2 hPa | 0 mm | - | 102 W/m² | - |
| 1777677626 | 17.22° C | 35% | 1016 hPa | 0 mm | - | 107 W/m² | - |
| 1777677324 | 17.22° C | 35% | 1015.8 hPa | 0 mm | - | 110 W/m² | - |
| 1777677022 | 17.78° C | 38% | 1016 hPa | 0 mm | - | 118 W/m² | - |
| 1777676721 | 17.78° C | 36% | 1016 hPa | 0 mm | - | 120 W/m² | - |
| 1777676418 | 17.78° C | 36% | 1015.9 hPa | 0 mm | - | 133 W/m² | - |
| 1777676116 | 17.78° C | 36% | 1016 hPa | 0 mm | - | 148 W/m² | - |
| 1777675811 | 18.33° C | 36% | 1016.1 hPa | 0 mm | - | 159 W/m² | - |
| 1777675509 | 18.89° C | 36% | 1016 hPa | 0 mm | - | 163 W/m² | - |
| 1777675206 | 18.33° C | 40% | 1016.1 hPa | 0 mm | - | 199 W/m² | - |
| 1777674902 | 18.33° C | 35% | 1016.1 hPa | 0 mm | - | 190 W/m² | - |
| 1777674598 | 18.33° C | 35% | 1016 hPa | 0 mm | - | 193 W/m² | - |
| 1777674296 | 18.33° C | 35% | 1015.8 hPa | 0 mm | - | 185 W/m² | - |
| 1777673992 | 18.33° C | 35% | 1015.9 hPa | 0 mm | - | 178 W/m² | - |
| 1777673688 | 18.89° C | 34% | 1015.8 hPa | 0 mm | - | 225 W/m² | - |
| 1777673386 | 19.44° C | 33% | 1015.8 hPa | 0 mm | - | 267 W/m² | - |
| 1777673084 | 20° C | 33% | 1015.7 hPa | 0 mm | - | 266 W/m² | - |
| 1777672779 | 20° C | 33% | 1015.4 hPa | 0 mm | - | 313 W/m² | - |
| 1777672477 | 19.44° C | 29% | 1015.4 hPa | 0 mm | - | 329 W/m² | - |
| 1777672172 | 19.44° C | 33% | 1015.4 hPa | 0 mm | - | 347 W/m² | - |
| 1777671868 | 18.89° C | 36% | 1015.3 hPa | 0 mm | - | 397 W/m² | - |
* Rain latest hour (hover to see other rain measurements)
** Current wind speed in m/s (hover to see current wind gust speed)